FDX506 EHAM-EGBB

Flight info

Callsign FDX506
Flight time 1h 8m
Altitude 24000
Route BERGI L60 OTBED Y70 VEGUS
Aircraft DH8D/M-SDE2E3FGRY/H

Departure

Time 2026-04-29 12:58
Airport Amsterdam Airport Schiphol (EHAM)

Arrival

Time 2026-04-29 14:06
Airport Birmingham Airport (EGBB)
Time Latitude Longitude Altitude Speed Heading
2026-04-29 11:59 52.29610 4.76516 -2 ft 0 kts 149°
2026-04-29 12:33 52.29611 4.76515 -2 ft 1 kts 148°
2026-04-29 12:34 52.29623 4.76502 -2 ft 2 kts 149°
2026-04-29 12:34 52.29636 4.76490 -2 ft 2 kts 149°
2026-04-29 12:34 52.29649 4.76477 -2 ft 2 kts 149°
2026-04-29 12:34 52.29662 4.76464 -2 ft 2 kts 149°
2026-04-29 12:35 52.29675 4.76452 -2 ft 2 kts 149°
2026-04-29 12:35 52.29688 4.76439 -2 ft 2 kts 149°
2026-04-29 12:35 52.29694 4.76432 -2 ft 1 kts 141°
2026-04-29 12:35 52.29698 4.76420 -2 ft 1 kts 84°
2026-04-29 12:36 52.29697 4.76413 -2 ft 1 kts 59°
2026-04-29 12:36 52.29710 4.76455 -2 ft 4 kts 61°
2026-04-29 12:36 52.29715 4.76469 -2 ft 0 kts 62°
2026-04-29 12:41 52.29722 4.76471 -2 ft 1 kts 334°
2026-04-29 12:41 52.29711 4.76431 -2 ft 9 kts 237°
2026-04-29 12:41 52.29659 4.76299 -2 ft 17 kts 238°
2026-04-29 12:42 52.29583 4.76101 -2 ft 21 kts 240°
2026-04-29 12:42 52.29513 4.75885 -2 ft 21 kts 249°
2026-04-29 12:42 52.29453 4.75674 -2 ft 20 kts 237°
2026-04-29 12:42 52.29434 4.75598 -2 ft 0 kts 272°
2026-04-29 12:43 52.29437 4.75576 -2 ft 0 kts 290°
2026-04-29 12:46 52.29449 4.75545 -2 ft 12 kts 314°
2026-04-29 12:46 52.29591 4.75397 -1 ft 33 kts 334°
2026-04-29 12:46 52.29832 4.75214 0 ft 35 kts 320°
2026-04-29 12:47 52.29980 4.74932 0 ft 31 kts 309°
2026-04-29 12:47 52.30126 4.74677 -2 ft 29 kts 315°
2026-04-29 12:47 52.30248 4.74430 -6 ft 27 kts 309°
2026-04-29 12:47 52.30320 4.74295 -8 ft 0 kts 314°
2026-04-29 12:48 52.30331 4.74279 -8 ft 8 kts 319°
2026-04-29 12:48 52.30402 4.74213 -9 ft 20 kts 342°
2026-04-29 12:49 52.30605 4.74212 -8 ft 36 kts
2026-04-29 12:49 52.30843 4.74229 -7 ft 28 kts
2026-04-29 12:49 52.31004 4.74239 -6 ft 17 kts
2026-04-29 12:49 52.31091 4.74250 -5 ft 8 kts
2026-04-29 12:50 52.31149 4.74253 -5 ft 9 kts
2026-04-29 12:50 52.31231 4.74262 -5 ft 17 kts
2026-04-29 12:50 52.31408 4.74293 -5 ft 32 kts
2026-04-29 12:50 52.31621 4.74305 -5 ft 29 kts
2026-04-29 12:51 52.31810 4.74315 -5 ft 24 kts
2026-04-29 12:51 52.31987 4.74317 -6 ft 24 kts 337°
2026-04-29 12:51 52.32032 4.74065 -5 ft 25 kts 278°
2026-04-29 12:51 52.32049 4.73759 -5 ft 31 kts 274°
2026-04-29 12:52 52.32101 4.73327 -5 ft 43 kts 321°
2026-04-29 12:52 52.32304 4.73053 -6 ft 34 kts 317°
2026-04-29 12:52 52.32458 4.72831 -6 ft 24 kts 320°
2026-04-29 12:52 52.32571 4.72670 -5 ft 17 kts 319°
2026-04-29 12:53 52.32643 4.72564 -5 ft 9 kts 316°
2026-04-29 12:53 52.32688 4.72490 -5 ft 17 kts 316°
2026-04-29 12:53 52.32786 4.72324 -5 ft 4 kts 309°
2026-04-29 12:53 52.32831 4.72236 -5 ft 22 kts 311°
2026-04-29 12:54 52.32955 4.72009 -5 ft 18 kts 312°
2026-04-29 12:54 52.33018 4.71889 -5 ft 18 kts 311°
2026-04-29 12:54 52.33097 4.71740 -6 ft 3 kts 309°
2026-04-29 12:54 52.33145 4.71619 -6 ft 21 kts 286°
2026-04-29 12:55 52.33136 4.71429 -6 ft 7 kts 288°
2026-04-29 12:55 52.33173 4.71340 -6 ft 14 kts 312°
2026-04-29 12:55 52.33232 4.71234 -6 ft 5 kts 313°
2026-04-29 12:55 52.33233 4.71232 -6 ft 0 kts 313°
2026-04-29 12:56 52.33235 4.71228 -6 ft 4 kts 314°
2026-04-29 12:56 52.33284 4.71143 -7 ft 11 kts 313°
2026-04-29 12:56 52.33393 4.70988 -7 ft 25 kts 334°
2026-04-29 12:56 52.33492 4.70957 -7 ft 0 kts 358°
2026-04-29 12:57 52.33494 4.70957 -7 ft 3 kts 358°
2026-04-29 12:57 52.33792 4.70978 -7 ft 88 kts
2026-04-29 12:57 52.34656 4.71040 -8 ft 153 kts
2026-04-29 12:58 52.35834 4.71151 237 ft 174 kts 12°
2026-04-29 12:58 52.37066 4.71321 812 ft 181 kts
2026-04-29 12:58 52.38250 4.71444 1567 ft 182 kts 12°
2026-04-29 12:58 52.39502 4.71572 2349 ft 181 kts 12°
2026-04-29 12:59 52.40711 4.71687 2980 ft 183 kts 12°
2026-04-29 12:59 52.41989 4.71808 3615 ft 185 kts 11°
2026-04-29 12:59 52.43285 4.71521 4215 ft 201 kts 340°
2026-04-29 12:59 52.44395 4.70007 4847 ft 211 kts 321°
2026-04-29 13:00 52.45435 4.68288 5492 ft 215 kts 321°
2026-04-29 13:00 52.46566 4.66434 5807 ft 237 kts 321°
2026-04-29 13:00 52.47791 4.64423 6120 ft 255 kts 320°
2026-04-29 13:00 52.49104 4.62263 6320 ft 277 kts 320°
2026-04-29 13:01 52.50546 4.59894 6360 ft 299 kts 320°
2026-04-29 13:01 52.52090 4.57539 6336 ft 299 kts 328°
2026-04-29 13:01 52.53828 4.55757 6347 ft 289 kts 335°
2026-04-29 13:01 52.55491 4.54168 6377 ft 261 kts 336°
2026-04-29 13:02 52.56921 4.52789 6768 ft 218 kts 336°
2026-04-29 13:02 52.58136 4.51613 6772 ft 190 kts 337°
2026-04-29 13:02 52.59188 4.50589 6753 ft 163 kts 339°
2026-04-29 13:02 52.60237 4.49657 6969 ft 183 kts 341°
2026-04-29 13:03 52.61444 4.48596 7206 ft 203 kts 339°
2026-04-29 13:03 52.62694 4.47444 7760 ft 210 kts 338°
2026-04-29 13:03 52.63978 4.46245 8409 ft 213 kts 337°
2026-04-29 13:03 52.65265 4.45039 9041 ft 215 kts 336°
2026-04-29 13:04 52.66567 4.43816 9694 ft 215 kts 336°
2026-04-29 13:04 52.67874 4.42589 10276 ft 217 kts 336°
2026-04-29 13:04 52.69177 4.41362 10848 ft 219 kts 337°
2026-04-29 13:04 52.70515 4.40105 11408 ft 222 kts 337°
2026-04-29 13:05 52.71854 4.38843 11984 ft 224 kts 337°
2026-04-29 13:05 52.73208 4.37567 12578 ft 223 kts 337°
2026-04-29 13:05 52.74526 4.36195 13081 ft 230 kts 324°
2026-04-29 13:05 52.75404 4.33898 13553 ft 244 kts 295°
2026-04-29 13:06 52.75943 4.31223 14062 ft 246 kts 292°
2026-04-29 13:06 52.76477 4.28507 14571 ft 248 kts 292°
2026-04-29 13:06 52.77008 4.25813 15040 ft 249 kts 292°
2026-04-29 13:06 52.77558 4.23041 15458 ft 253 kts 292°
2026-04-29 13:07 52.78100 4.20312 15937 ft 254 kts 292°
2026-04-29 13:07 52.78657 4.17514 16375 ft 255 kts 293°
2026-04-29 13:07 52.79217 4.14709 16790 ft 257 kts 292°
2026-04-29 13:07 52.79779 4.11893 17211 ft 260 kts 292°
2026-04-29 13:08 52.80348 4.09042 17617 ft 261 kts 293°
2026-04-29 13:08 52.80922 4.06163 18034 ft 261 kts 292°
2026-04-29 13:08 52.81495 4.03288 18404 ft 264 kts 293°
2026-04-29 13:08 52.82069 4.00404 18778 ft 265 kts 292°
2026-04-29 13:09 52.82650 3.97487 19121 ft 267 kts 293°
2026-04-29 13:09 52.83238 3.94530 19444 ft 270 kts 293°
2026-04-29 13:09 52.83825 3.91574 19814 ft 271 kts 292°
2026-04-29 13:09 52.84415 3.88595 20132 ft 274 kts 293°
2026-04-29 13:10 52.85016 3.85560 20457 ft 275 kts 292°
2026-04-29 13:10 52.85612 3.82541 20779 ft 277 kts 293°
2026-04-29 13:10 52.86213 3.79501 21070 ft 279 kts 292°
2026-04-29 13:10 52.86819 3.76428 21349 ft 281 kts 292°
2026-04-29 13:11 52.87423 3.73354 21652 ft 281 kts 292°
2026-04-29 13:11 52.88026 3.70281 21916 ft 283 kts 292°
2026-04-29 13:11 52.88641 3.67145 22198 ft 284 kts 292°
2026-04-29 13:11 52.89250 3.64038 22402 ft 287 kts 292°
2026-04-29 13:12 52.89865 3.60892 22647 ft 288 kts 292°
2026-04-29 13:12 52.90483 3.57721 22942 ft 287 kts 292°
2026-04-29 13:12 52.91105 3.54532 23133 ft 290 kts 292°
2026-04-29 13:12 52.91725 3.51342 23381 ft 291 kts 292°
2026-04-29 13:13 52.92350 3.48131 23575 ft 292 kts 292°
2026-04-29 13:13 52.92974 3.44912 23795 ft 294 kts 292°
2026-04-29 13:13 52.93599 3.41685 24009 ft 294 kts 292°
2026-04-29 13:13 52.94226 3.38439 24179 ft 296 kts 292°
2026-04-29 13:14 52.94860 3.35157 24322 ft 300 kts 292°
2026-04-29 13:14 52.95509 3.31793 24366 ft 307 kts 291°
2026-04-29 13:14 52.96172 3.28352 24384 ft 315 kts 290°
2026-04-29 13:14 52.96841 3.24872 24384 ft 322 kts 290°
2026-04-29 13:15 52.97531 3.21269 24382 ft 330 kts 290°
2026-04-29 13:15 52.98238 3.17573 24383 ft 337 kts 290°
2026-04-29 13:15 52.98953 3.13824 24386 ft 343 kts 290°
2026-04-29 13:15 52.99680 3.10008 24387 ft 348 kts 290°
2026-04-29 13:16 53.00413 3.06143 24381 ft 352 kts 290°
2026-04-29 13:16 53.01153 3.02241 24380 ft 356 kts 290°
2026-04-29 13:16 53.01903 2.98276 24387 ft 359 kts 290°
2026-04-29 13:16 53.02648 2.94331 24386 ft 362 kts 290°
2026-04-29 13:17 53.03407 2.90299 24383 ft 364 kts 290°
2026-04-29 13:17 53.04169 2.86244 24383 ft 366 kts 290°
2026-04-29 13:17 53.04932 2.82182 24385 ft 368 kts 290°
2026-04-29 13:17 53.05700 2.78078 24380 ft 369 kts 290°
2026-04-29 13:18 53.06464 2.73988 24384 ft 370 kts 290°
2026-04-29 13:18 53.07230 2.69881 24384 ft 371 kts 290°
2026-04-29 13:18 53.07986 2.65817 24383 ft 371 kts 290°
2026-04-29 13:18 53.08752 2.61689 24383 ft 372 kts 289°
2026-04-29 13:19 53.09516 2.57569 24386 ft 372 kts 289°
2026-04-29 13:19 53.10186 2.53941 24388 ft 373 kts 289°
2026-04-29 13:19 53.10905 2.49810 24386 ft 374 kts 285°
2026-04-29 13:19 53.11337 2.45514 24400 ft 375 kts 279°
2026-04-29 13:20 53.11688 2.41144 24402 ft 375 kts 279°
2026-04-29 13:20 53.12033 2.36828 24402 ft 376 kts 279°
2026-04-29 13:20 53.12377 2.32535 24401 ft 376 kts 278°
2026-04-29 13:20 53.12723 2.28203 24403 ft 376 kts 278°
2026-04-29 13:21 53.12989 2.24890 24411 ft 376 kts 278°
2026-04-29 13:21 53.13336 2.20546 24409 ft 376 kts 278°
2026-04-29 13:21 53.13681 2.16232 24407 ft 376 kts 278°
2026-04-29 13:21 53.14027 2.11882 24408 ft 376 kts 278°
2026-04-29 13:22 53.14373 2.07525 24411 ft 376 kts 278°
2026-04-29 13:22 53.14716 2.03189 24408 ft 376 kts 278°
2026-04-29 13:22 53.15058 1.98845 24406 ft 377 kts 278°
2026-04-29 13:22 53.15400 1.94498 24407 ft 377 kts 278°
2026-04-29 13:23 53.15738 1.90170 24403 ft 377 kts 278°
2026-04-29 13:23 53.16072 1.85864 24405 ft 378 kts 278°
2026-04-29 13:23 53.16410 1.81506 24406 ft 379 kts 278°
2026-04-29 13:23 53.16748 1.77124 24404 ft 379 kts 278°
2026-04-29 13:24 53.17085 1.72737 24408 ft 380 kts 278°
2026-04-29 13:24 53.17419 1.68355 24408 ft 380 kts 278°
2026-04-29 13:24 53.17753 1.63958 24409 ft 380 kts 278°
2026-04-29 13:24 53.18086 1.59559 24405 ft 381 kts 278°
2026-04-29 13:25 53.18415 1.55171 24407 ft 381 kts 278°
2026-04-29 13:25 53.19072 1.46378 24409 ft 382 kts 278°
2026-04-29 13:25 53.19396 1.42004 24411 ft 382 kts 278°
2026-04-29 13:26 53.19722 1.37579 24407 ft 382 kts 278°
2026-04-29 13:26 53.20046 1.33162 24405 ft 382 kts 277°
2026-04-29 13:26 53.20368 1.28749 24410 ft 381 kts 277°
2026-04-29 13:26 53.20683 1.24399 24413 ft 381 kts 277°
2026-04-29 13:27 53.21002 1.19986 24406 ft 381 kts 277°
2026-04-29 13:27 53.21320 1.15558 24403 ft 381 kts 277°
2026-04-29 13:27 53.21630 1.11215 24405 ft 381 kts 277°
2026-04-29 13:27 53.21943 1.06809 24409 ft 380 kts 276°
2026-04-29 13:28 53.22254 1.02408 24406 ft 381 kts 276°
2026-04-29 13:28 53.22564 0.97999 24408 ft 381 kts 277°
2026-04-29 13:28 53.22871 0.93602 24399 ft 381 kts 276°
2026-04-29 13:28 53.23179 0.89185 24396 ft 381 kts 277°
2026-04-29 13:29 53.23484 0.84766 24393 ft 381 kts 276°
2026-04-29 13:29 53.23785 0.80387 24397 ft 381 kts 276°
2026-04-29 13:29 53.24089 0.75939 24391 ft 381 kts 276°
2026-04-29 13:29 53.24385 0.71587 24393 ft 381 kts 277°
2026-04-29 13:30 53.24685 0.67162 24395 ft 381 kts 276°
2026-04-29 13:30 53.24982 0.62738 24402 ft 380 kts 276°
2026-04-29 13:30 53.25277 0.58329 24404 ft 380 kts 276°
2026-04-29 13:30 53.25566 0.53978 24398 ft 381 kts 276°
2026-04-29 13:31 53.25859 0.49544 24400 ft 381 kts 276°
2026-04-29 13:31 53.26151 0.45113 24400 ft 381 kts 276°
2026-04-29 13:31 53.26437 0.40731 24399 ft 381 kts 276°
2026-04-29 13:31 53.26725 0.36306 24403 ft 380 kts 276°
2026-04-29 13:32 53.27009 0.31904 24403 ft 380 kts 275°
2026-04-29 13:32 53.27293 0.27499 24401 ft 379 kts 275°
2026-04-29 13:32 53.27572 0.23114 24397 ft 379 kts 275°
2026-04-29 13:32 53.27850 0.18744 24396 ft 378 kts 275°
2026-04-29 13:33 53.28128 0.14335 24395 ft 378 kts 275°
2026-04-29 13:33 53.28402 0.09960 24397 ft 378 kts 275°
2026-04-29 13:33 53.28678 0.05613 24391 ft 379 kts 276°
2026-04-29 13:33 53.29339 0.01371 24391 ft 377 kts 294°
2026-04-29 13:34 53.30484 -0.02636 24389 ft 377 kts 297°
2026-04-29 13:34 53.31642 -0.06560 24401 ft 377 kts 297°
2026-04-29 13:34 53.32801 -0.10486 24394 ft 378 kts 297°
2026-04-29 13:34 53.33981 -0.14497 24052 ft 388 kts 297°
2026-04-29 13:35 53.35201 -0.18653 23360 ft 397 kts 297°
2026-04-29 13:35 53.36395 -0.22761 22610 ft 389 kts 297°
2026-04-29 13:35 53.37563 -0.26800 21885 ft 380 kts 297°
2026-04-29 13:35 53.38701 -0.30732 21177 ft 373 kts 297°
2026-04-29 13:36 53.39827 -0.34634 20476 ft 367 kts 298°
2026-04-29 13:36 53.40928 -0.38452 20044 ft 353 kts 298°
2026-04-29 13:36 53.41948 -0.42003 19976 ft 331 kts 298°
2026-04-29 13:36 53.42954 -0.45489 19864 ft 337 kts 298°
2026-04-29 13:37 53.44018 -0.49143 19688 ft 353 kts 298°
2026-04-29 13:37 53.45119 -0.52945 19481 ft 367 kts 298°
2026-04-29 13:37 53.46241 -0.56836 19263 ft 378 kts 298°
2026-04-29 13:37 53.47404 -0.60887 19056 ft 386 kts 298°
2026-04-29 13:38 53.48575 -0.64975 18841 ft 392 kts 298°
2026-04-29 13:38 53.49767 -0.69147 18631 ft 397 kts 297°
2026-04-29 13:38 53.50971 -0.73373 18361 ft 401 kts 297°
2026-04-29 13:38 53.52181 -0.77632 18140 ft 402 kts 297°
2026-04-29 13:39 53.53380 -0.81860 17942 ft 396 kts 297°
2026-04-29 13:39 53.54541 -0.85977 17715 ft 384 kts 297°
2026-04-29 13:39 53.55672 -0.89997 17489 ft 375 kts 297°
2026-04-29 13:39 53.56788 -0.93968 17276 ft 366 kts 297°
2026-04-29 13:40 53.57861 -0.97786 17076 ft 359 kts 297°
2026-04-29 13:40 53.58918 -1.01553 16859 ft 353 kts 297°
2026-04-29 13:40 53.59969 -1.05319 16663 ft 349 kts 296°
2026-04-29 13:40 53.60581 -1.09205 16451 ft 345 kts 272°
2026-04-29 13:41 53.60360 -1.13181 16292 ft 338 kts 259°
2026-04-29 13:41 53.59987 -1.17122 16097 ft 336 kts 259°
2026-04-29 13:41 53.59610 -1.20988 15901 ft 334 kts 258°
2026-04-29 13:41 53.59230 -1.24853 15717 ft 331 kts 258°
2026-04-29 13:42 53.59040 -1.26783 15627 ft 330 kts 258°
2026-04-29 13:42 53.58660 -1.30641 15438 ft 329 kts 258°
2026-04-29 13:42 53.58284 -1.34443 15258 ft 327 kts 258°
2026-04-29 13:42 53.57915 -1.38169 15069 ft 326 kts 258°
2026-04-29 13:43 53.57541 -1.41938 14888 ft 325 kts 258°
2026-04-29 13:43 53.57162 -1.45738 14707 ft 323 kts 258°
2026-04-29 13:43 53.56791 -1.49456 14524 ft 323 kts 258°
2026-04-29 13:43 53.56416 -1.53199 14341 ft 322 kts 258°
2026-04-29 13:44 53.56046 -1.56876 14157 ft 321 kts 258°
2026-04-29 13:44 53.55674 -1.60565 13988 ft 320 kts 258°
2026-04-29 13:44 53.55302 -1.64245 13808 ft 319 kts 258°
2026-04-29 13:44 53.54934 -1.67875 13619 ft 317 kts 257°
2026-04-29 13:45 53.54556 -1.71592 13448 ft 315 kts 257°
2026-04-29 13:45 53.54186 -1.75216 13269 ft 314 kts 257°
2026-04-29 13:45 53.53817 -1.78826 13095 ft 313 kts 257°
2026-04-29 13:45 53.53442 -1.82477 12911 ft 312 kts 257°
2026-04-29 13:46 53.53073 -1.86063 12743 ft 311 kts 257°
2026-04-29 13:46 53.52510 -1.89534 12534 ft 305 kts 239°
2026-04-29 13:46 53.51327 -1.92461 12396 ft 297 kts 227°
2026-04-29 13:46 53.50069 -1.95203 12232 ft 296 kts 227°
2026-04-29 13:47 53.48795 -1.97965 12066 ft 295 kts 227°
2026-04-29 13:47 53.47542 -2.00677 11895 ft 295 kts 227°
2026-04-29 13:47 53.46282 -2.03405 11718 ft 294 kts 227°
2026-04-29 13:47 53.45031 -2.06115 11545 ft 292 kts 227°
2026-04-29 13:48 53.43787 -2.08808 11389 ft 291 kts 227°
2026-04-29 13:48 53.42537 -2.11515 11226 ft 290 kts 227°
2026-04-29 13:48 53.41311 -2.14168 11053 ft 289 kts 227°
2026-04-29 13:48 53.40079 -2.16832 10870 ft 287 kts 227°
2026-04-29 13:49 53.38845 -2.19499 10738 ft 286 kts 227°
2026-04-29 13:49 53.37609 -2.22112 10531 ft 286 kts 223°
2026-04-29 13:49 53.36024 -2.23891 10390 ft 266 kts 190°
2026-04-29 13:49 53.34266 -2.23849 10341 ft 244 kts 158°
2026-04-29 13:50 53.32721 -2.22783 10314 ft 237 kts 150°
2026-04-29 13:50 53.31242 -2.21611 10289 ft 233 kts 149°
2026-04-29 13:50 53.29784 -2.20402 10273 ft 230 kts 149°
2026-04-29 13:50 53.28372 -2.19195 10256 ft 227 kts 148°
2026-04-29 13:51 53.26964 -2.17969 10230 ft 225 kts 147°
2026-04-29 13:51 53.25552 -2.16719 10043 ft 231 kts 148°
2026-04-29 13:51 53.24118 -2.15434 9933 ft 232 kts 148°
2026-04-29 13:51 53.22709 -2.14164 9876 ft 231 kts 148°
2026-04-29 13:52 53.21283 -2.12873 9764 ft 233 kts 148°
2026-04-29 13:52 53.19818 -2.11538 9442 ft 243 kts 147°
2026-04-29 13:52 53.18314 -2.10166 9106 ft 250 kts 147°
2026-04-29 13:52 53.16760 -2.08746 8763 ft 256 kts 147°
2026-04-29 13:53 53.15190 -2.07310 8406 ft 261 kts 147°
2026-04-29 13:53 53.13621 -2.05877 8045 ft 252 kts 147°
2026-04-29 13:53 53.12104 -2.04488 7646 ft 242 kts 147°
2026-04-29 13:53 53.10659 -2.03167 7234 ft 234 kts 146°
2026-04-29 13:54 53.09236 -2.01864 6799 ft 227 kts 146°
2026-04-29 13:54 53.07869 -2.00615 6365 ft 222 kts 146°
2026-04-29 13:54 53.06534 -1.99394 5920 ft 218 kts 145°
2026-04-29 13:54 53.05248 -1.98223 5849 ft 200 kts 145°
2026-04-29 13:55 53.03968 -1.97294 5859 ft 202 kts 159°
2026-04-29 13:55 53.02537 -1.97010 5881 ft 209 kts 168°
2026-04-29 13:55 53.01051 -1.96833 5888 ft 216 kts 168°
2026-04-29 13:55 52.99525 -1.96651 5893 ft 223 kts 168°
2026-04-29 13:56 52.97958 -1.96461 5896 ft 228 kts 168°
2026-04-29 13:56 52.96346 -1.96262 5893 ft 233 kts 168°
2026-04-29 13:56 52.94706 -1.96057 5896 ft 237 kts 168°
2026-04-29 13:56 52.93040 -1.95847 5893 ft 240 kts 168°
2026-04-29 13:57 52.91362 -1.95634 5888 ft 243 kts 168°
2026-04-29 13:57 52.89669 -1.95418 5889 ft 242 kts 168°
2026-04-29 13:57 52.87994 -1.95205 5885 ft 241 kts 168°
2026-04-29 13:57 52.86308 -1.94988 5889 ft 240 kts 168°
2026-04-29 13:58 52.84656 -1.94775 5884 ft 239 kts 168°
2026-04-29 13:58 52.82991 -1.94560 5889 ft 239 kts 168°
2026-04-29 13:58 52.81324 -1.94344 5879 ft 238 kts 168°
2026-04-29 13:58 52.79673 -1.94130 5877 ft 237 kts 168°
2026-04-29 13:59 52.78004 -1.93913 5872 ft 237 kts 168°
2026-04-29 13:59 52.76353 -1.93698 5879 ft 238 kts 168°
2026-04-29 13:59 52.74704 -1.93484 5846 ft 239 kts 168°
2026-04-29 13:59 52.73003 -1.93258 5587 ft 245 kts 168°
2026-04-29 14:00 52.71346 -1.93047 5637 ft 238 kts 168°
2026-04-29 14:00 52.69677 -1.92832 5574 ft 236 kts 168°
2026-04-29 14:00 52.68061 -1.92623 5468 ft 233 kts 168°
2026-04-29 14:00 52.66497 -1.92422 5356 ft 216 kts 167°
2026-04-29 14:01 52.65053 -1.92241 5252 ft 196 kts 166°
2026-04-29 14:01 52.63752 -1.92080 5167 ft 178 kts 165°
2026-04-29 14:01 52.62574 -1.91937 5055 ft 156 kts 164°
2026-04-29 14:01 52.61530 -1.91782 5009 ft 150 kts 157°
2026-04-29 14:02 52.60516 -1.91070 4975 ft 159 kts 141°
2026-04-29 14:02 52.59585 -1.90115 4842 ft 156 kts 139°
2026-04-29 14:02 52.58730 -1.89226 4704 ft 132 kts 137°
2026-04-29 14:02 52.57957 -1.88419 4632 ft 131 kts 137°
2026-04-29 14:03 52.57196 -1.87573 4568 ft 130 kts 130°
2026-04-29 14:03 52.56452 -1.86680 4526 ft 136 kts 142°
2026-04-29 14:03 52.55579 -1.86010 4495 ft 137 kts 142°
2026-04-29 14:03 52.54763 -1.85233 4468 ft 134 kts 137°
2026-04-29 14:04 52.53972 -1.84381 4404 ft 138 kts 136°
2026-04-29 14:04 52.53188 -1.83513 3982 ft 137 kts 135°
2026-04-29 14:04 52.52375 -1.82587 3323 ft 149 kts 134°
2026-04-29 14:04 52.51521 -1.81631 2868 ft 145 kts 135°
2026-04-29 14:05 52.50721 -1.80766 2597 ft 130 kts 134°
2026-04-29 14:05 52.49971 -1.79916 2081 ft 136 kts 134°
2026-04-29 14:05 52.49173 -1.79014 1509 ft 144 kts 134°
2026-04-29 14:05 52.48334 -1.78074 943 ft 151 kts 138°
2026-04-29 14:06 52.47497 -1.77139 613 ft 140 kts 137°
2026-04-29 14:06 52.46668 -1.76225 430 ft 144 kts 139°
2026-04-29 14:06 52.45914 -1.75356 343 ft 115 kts 146°
2026-04-29 14:06 52.45490 -1.74933 343 ft 39 kts 147°
2026-04-29 14:07 52.45421 -1.74865 343 ft 0 kts 142°
2026-04-29 14:07 52.45401 -1.74811 343 ft 12 kts 93°
2026-04-29 14:07 52.45426 -1.74707 343 ft 6 kts 64°
2026-04-29 14:07 52.45436 -1.74673 343 ft 0 kts 68°
2026-04-29 14:08 52.45448 -1.74630 342 ft 10 kts 62°
2026-04-29 14:08 52.45463 -1.74579 343 ft 2 kts 76°
2026-04-29 14:08 52.45459 -1.74501 343 ft 11 kts 110°
2026-04-29 14:09 52.45412 -1.74362 343 ft 0 kts 114°
2026-04-29 14:09 52.45390 -1.74287 343 ft 15 kts 118°
2026-04-29 14:09 52.45329 -1.74095 343 ft 14 kts 116°
2026-04-29 14:09 52.45310 -1.74005 343 ft 2 kts 80°
2026-04-29 14:10 52.45323 -1.73999 343 ft 4 kts 357°
2026-04-29 14:10 52.45346 -1.74008 343 ft 3 kts 347°
2026-04-29 14:10 52.45376 -1.73999 343 ft 3 kts 21°
2026-04-29 14:10 52.45395 -1.73983 343 ft 0 kts 27°